Weather History for North Padre Island, TX

Change the Weather History Date:

Thursday, January 3, 2013

  Actual Average Record
Temperature  
Mean Temperature 56 °F -  
Max Temperature 59 °F - - ()
Min Temperature 53 °F - - ()
Degree Days  
Heating Degree Days 9    
Growing Degree Days 6 (Base 50)    
Moisture  
Dew Point 47 °F    
Average Humidity 72    
Maximum Humidity 82    
Minimum Humidity 59    
Precipitation  
Precipitation 0.00 in - - ()
Sea Level Pressure  
Sea Level Pressure 30.28 in    
Wind  
Wind Speed 11 mph (North)    
Max Wind Speed 21 mph    
Max Gust Speed 31 mph    
Visibility 10 miles    
Events      
T = Trace of Precipitation, MM = Missing Value Source: NWS Daily Summary

Daily Weather History Graph

Daily Weather History Graph

Search for Another Location

Airport:

Trip Planner

Search our weather history database for the weather conditions in past years. The results will help you decide how hot, cold, wet, or windy it might be!

Date:

Astronomy

Jan. 03, 2013 Rise Set
Actual Time 7:17 AM CST 5:47 PM CST
Civil Twilight 6:51 AM CST 6:13 PM CST
Nautical Twilight 6:23 AM CST 6:41 PM CST
Astronomical Twilight 5:54 AM CST 7:10 PM CST
Moon 11:45 PM CST (1/3) 11:05 AM CST (1/3)
Length of Visible Light 11h 21m
Length of Day
10h 30m
Waning Gibbous, 65% of the Moon is Illuminated
Jan 3
Waning Gibbous
Jan 4
Last Quarter
Jan 11
New
Jan 18
First Quarter
Jan 26
Full

Hourly Weather History & Observations

Time (CST) Temp. Dew Point Humidity Pressure Visibility Wind Dir Wind Speed Gust Speed Precip Events Conditions
12:15 AM 53.6 °F 44.6 °F 72% 30.24 in 10.0 mi NNW 11.5 mph 17.3 mph N/A   Overcast
12:35 AM 53.6 °F 44.6 °F 72% 30.23 in 10.0 mi NNW 9.2 mph 18.4 mph N/A   Scattered Clouds
12:55 AM 53.6 °F 46.4 °F 77% 30.24 in 10.0 mi North 8.1 mph 16.1 mph N/A   Clear
1:15 AM 53.6 °F 46.4 °F 77% 30.24 in 10.0 mi NNW 6.9 mph 15.0 mph N/A   Partly Cloudy
1:35 AM 53.6 °F 46.4 °F 77% 30.24 in 10.0 mi NNW 11.5 mph - N/A   Partly Cloudy
1:55 AM 53.6 °F 46.4 °F 77% 30.23 in 10.0 mi North 9.2 mph 17.3 mph N/A   Partly Cloudy
2:15 AM 53.6 °F 48.2 °F 82% 30.23 in 10.0 mi NNW 12.7 mph - N/A   Clear
2:35 AM 53.6 °F 48.2 °F 82% 30.23 in 10.0 mi NNW 11.5 mph - N/A   Partly Cloudy
2:55 AM 53.6 °F 48.2 °F 82% 30.24 in 10.0 mi NNW 10.4 mph 16.1 mph N/A   Scattered Clouds
3:15 AM 53.6 °F 48.2 °F 82% 30.24 in 10.0 mi North 8.1 mph 15.0 mph N/A   Partly Cloudy
3:35 AM 53.6 °F 48.2 °F 82% 30.24 in 10.0 mi North 9.2 mph 16.1 mph N/A   Partly Cloudy
3:55 AM 53.6 °F 48.2 °F 82% 30.24 in 10.0 mi North 8.1 mph 16.1 mph N/A   Partly Cloudy
4:15 AM 53.6 °F 48.2 °F 82% 30.24 in 10.0 mi North 8.1 mph 17.3 mph N/A   Clear
4:35 AM 53.6 °F 46.4 °F 77% 30.24 in 10.0 mi NNW 8.1 mph 15.0 mph N/A   Clear
4:55 AM 53.6 °F 48.2 °F 82% 30.24 in 10.0 mi North 11.5 mph - N/A   Clear
5:15 AM 53.6 °F 46.4 °F 77% 30.24 in 10.0 mi North 11.5 mph 18.4 mph N/A   Partly Cloudy
5:35 AM 55.4 °F 48.2 °F 77% 30.24 in 10.0 mi North 10.4 mph 20.7 mph N/A   Partly Cloudy
5:55 AM 55.4 °F 46.4 °F 72% 30.24 in 10.0 mi North 13.8 mph 21.9 mph N/A   Partly Cloudy
6:15 AM 55.4 °F 46.4 °F 72% 30.24 in 10.0 mi North 12.7 mph 18.4 mph N/A   Partly Cloudy
6:35 AM 55.4 °F 46.4 °F 72% 30.26 in 10.0 mi North 9.2 mph 17.3 mph N/A   Partly Cloudy
7:15 AM 55.4 °F 46.4 °F 72% 30.27 in 10.0 mi North 11.5 mph - N/A   Scattered Clouds
7:35 AM 55.4 °F 46.4 °F 72% 30.27 in 10.0 mi North 10.4 mph 17.3 mph N/A   Scattered Clouds
7:55 AM 55.4 °F 46.4 °F 72% 30.28 in 10.0 mi North 12.7 mph 18.4 mph N/A   Scattered Clouds
8:15 AM 55.4 °F 46.4 °F 72% 30.29 in 10.0 mi North 10.4 mph 20.7 mph N/A   Mostly Cloudy
8:55 AM 55.4 °F 46.4 °F 72% 30.30 in 10.0 mi North 13.8 mph 20.7 mph N/A   Overcast
9:15 AM 55.4 °F 46.4 °F 72% 30.31 in 10.0 mi North 10.4 mph 20.7 mph N/A   Overcast
9:35 AM 55.4 °F 46.4 °F 72% 30.31 in 10.0 mi North 12.7 mph 20.7 mph N/A   Overcast
9:55 AM 55.4 °F 46.4 °F 72% 30.32 in 10.0 mi North 12.7 mph 18.4 mph N/A   Overcast
10:15 AM 55.4 °F 46.4 °F 72% 30.31 in 10.0 mi North 11.5 mph 19.6 mph N/A   Overcast
10:35 AM 57.2 °F 48.2 °F 72% 30.31 in 10.0 mi North 12.7 mph 21.9 mph N/A   Overcast
10:55 AM 55.4 °F 46.4 °F 72% 30.31 in 10.0 mi North 12.7 mph 20.7 mph N/A   Overcast
11:15 AM 57.2 °F 46.4 °F 67% 30.31 in 10.0 mi North 13.8 mph 21.9 mph N/A   Overcast
11:35 AM 57.2 °F 46.4 °F 67% 30.30 in 10.0 mi North 12.7 mph 21.9 mph N/A   Overcast
11:55 AM 57.2 °F 46.4 °F 67% 30.30 in 10.0 mi North 10.4 mph 21.9 mph N/A   Overcast
12:15 PM 57.2 °F 46.4 °F 67% 30.29 in 10.0 mi North 10.4 mph 19.6 mph N/A   Overcast
12:35 PM 57.2 °F 48.2 °F 72% 30.28 in 10.0 mi North 10.4 mph 21.9 mph N/A   Overcast
12:55 PM 55.4 °F 46.4 °F 72% 30.27 in - North 10.4 mph 19.6 mph N/A   Overcast
1:15 PM 55.4 °F 46.4 °F 72% 30.26 in 10.0 mi North 13.8 mph 19.6 mph N/A   Overcast
1:35 PM 55.4 °F 46.4 °F 72% 30.26 in 10.0 mi North 11.5 mph 19.6 mph N/A   Overcast
1:55 PM 55.4 °F 48.2 °F 77% 30.26 in 10.0 mi North 13.8 mph 21.9 mph N/A   Overcast
2:15 PM 55.4 °F 48.2 °F 77% 30.26 in 10.0 mi North 9.2 mph 20.7 mph N/A   Mostly Cloudy
2:35 PM 55.4 °F 48.2 °F 77% 30.26 in 10.0 mi North 13.8 mph 20.7 mph N/A   Mostly Cloudy
2:55 PM 55.4 °F 48.2 °F 77% 30.26 in 10.0 mi North 13.8 mph - N/A   Mostly Cloudy
3:15 PM 55.4 °F 48.2 °F 77% 30.26 in 10.0 mi NNW 11.5 mph 19.6 mph N/A   Mostly Cloudy
3:35 PM 55.4 °F 48.2 °F 77% 30.27 in 9.0 mi NNW 12.7 mph 19.6 mph N/A   Overcast
3:55 PM 55.4 °F 48.2 °F 77% 30.28 in 9.0 mi NNW 12.7 mph 23.0 mph N/A   Mostly Cloudy
4:15 PM 55.4 °F 48.2 °F 77% 30.28 in 9.0 mi North 15.0 mph 21.9 mph N/A   Mostly Cloudy
4:55 PM 55.4 °F 48.2 °F 77% 30.29 in 9.0 mi North 11.5 mph 23.0 mph N/A   Mostly Cloudy
5:15 PM 55.4 °F 48.2 °F 77% 30.30 in 10.0 mi North 13.8 mph 23.0 mph N/A   Overcast
5:35 PM 55.4 °F 48.2 °F 77% 30.30 in 10.0 mi North 12.7 mph 21.9 mph N/A   Overcast
5:55 PM 55.4 °F 48.2 °F 77% 30.31 in 10.0 mi North 10.4 mph 21.9 mph N/A   Overcast
6:15 PM 55.4 °F 46.4 °F 72% 30.31 in 10.0 mi North 17.3 mph 23.0 mph N/A   Overcast
6:35 PM 55.4 °F 46.4 °F 72% 30.32 in 10.0 mi North 12.7 mph 19.6 mph N/A   Overcast
6:55 PM 55.4 °F 44.6 °F 67% 30.32 in 10.0 mi North 16.1 mph 23.0 mph N/A   Overcast
7:15 PM 57.2 °F 44.6 °F 63% 30.33 in 10.0 mi North 15.0 mph 21.9 mph N/A   Overcast
7:35 PM 57.2 °F 44.6 °F 63% 30.33 in 10.0 mi North 13.8 mph 23.0 mph N/A   Overcast
7:55 PM 57.2 °F 44.6 °F 63% 30.33 in 10.0 mi North 12.7 mph 24.2 mph N/A   Overcast
8:15 PM 57.2 °F 44.6 °F 63% 30.33 in 10.0 mi North 12.7 mph 19.6 mph N/A   Overcast
8:35 PM 57.2 °F 44.6 °F 63% 30.33 in 10.0 mi North 12.7 mph 19.6 mph N/A   Overcast
8:55 PM 57.2 °F 44.6 °F 63% 30.34 in 10.0 mi North 10.4 mph 24.2 mph N/A   Overcast
9:15 PM 57.2 °F 44.6 °F 63% 30.33 in 10.0 mi NNE 11.5 mph 26.5 mph N/A   Overcast
9:35 PM 57.2 °F 44.6 °F 63% 30.33 in 10.0 mi North 11.5 mph 20.7 mph N/A   Overcast
9:55 PM 57.2 °F 44.6 °F 63% 30.33 in 10.0 mi NNE 12.7 mph 23.0 mph N/A   Overcast
10:15 PM 57.2 °F 44.6 °F 63% 30.32 in 10.0 mi NNE 13.8 mph 25.3 mph N/A   Overcast
10:35 PM 59.0 °F 44.6 °F 59% 30.31 in 10.0 mi NNE 12.7 mph 21.9 mph N/A   Overcast
10:55 PM 59.0 °F 44.6 °F 59% 30.30 in 10.0 mi NNE 18.4 mph 27.6 mph N/A   Overcast
11:15 PM 59.0 °F 44.6 °F 59% 30.30 in 10.0 mi NNE 19.6 mph 31.1 mph N/A   Overcast
11:35 PM 59.0 °F 44.6 °F 59% 30.29 in 10.0 mi NNE 20.7 mph 28.8 mph N/A   Overcast
11:55 PM 59.0 °F 44.6 °F 59% 30.30 in 10.0 mi NNE 18.4 mph 24.2 mph N/A   Overcast